Weather History for Kankakee, IL

Change the Weather History Date:

Sunday, September 29, 2013

  Actual Average Record
Temperature  
Mean Temperature 60 °F -  
Max Temperature 70 °F 73 °F 87 °F (2002)
Min Temperature 45 °F 47 °F 35 °F (1992)
Degree Days  
Heating Degree Days 6    
Growing Degree Days 10 (Base 50)    
Moisture  
Dew Point 52 °F    
Average Humidity 76    
Maximum Humidity 99    
Minimum Humidity 45    
Precipitation  
Precipitation 0.16 in - - ()
Sea Level Pressure  
Sea Level Pressure 30.02 in    
Wind  
Wind Speed 7 mph (NNW)    
Max Wind Speed 13 mph    
Max Gust Speed 21 mph    
Visibility 9 miles    
Events Rain    
Averages and records for this station are not official NWS values.
T = Trace of Precipitation, MM = Missing Value Source: NWS Daily Summary

Daily Weather History Graph

Daily Weather History Graph

Search for Another Location

Airport:

Trip Planner

Search our weather history database for the weather conditions in past years. The results will help you decide how hot, cold, wet, or windy it might be!

Date:

Astronomy

Sep. 29, 2013 Rise Set
Actual Time 6:46 AM CDT 6:36 PM CDT
Civil Twilight 6:18 AM CDT 7:03 PM CDT
Nautical Twilight 5:46 AM CDT 7:35 PM CDT
Astronomical Twilight 5:14 AM CDT 8:07 PM CDT
Moon 1:25 AM CDT (9/29) 3:34 PM CDT (9/29)
Length of Visible Light 12h 44m
Length of Day
11h 50m
Waning Crescent, 27% of the Moon is Illuminated
Sep 29
Waning Crescent
Oct 4
New
Oct 11
First Quarter
Oct 18
Full
Oct 26
Last Quarter

Hourly Weather History & Observations

Time (CDT) Temp. Dew Point Humidity Pressure Visibility Wind Dir Wind Speed Gust Speed Precip Events Conditions
12:15 AM 72.0 °F 56.5 °F 58% 29.95 in 10.0 mi South 9.2 mph - N/A   Overcast
12:35 AM 71.8 °F 56.7 °F 59% 29.96 in 10.0 mi South 10.4 mph - N/A   Overcast
12:55 AM 69.1 °F 59.2 °F 71% 29.97 in 7.0 mi SW 12.7 mph 17.3 mph N/A Rain Light Rain
1:15 AM 66.0 °F 61.5 °F 85% 29.97 in 7.0 mi WSW 8.1 mph - N/A   Drizzle
1:35 AM 65.5 °F 62.1 °F 89% 29.97 in 7.0 mi WSW 6.9 mph - 0.01 in Rain Rain
1:55 AM 64.8 °F 63.0 °F 94% 29.97 in 5.0 mi WSW 6.9 mph - 0.06 in Rain Heavy Rain
2:15 AM 65.3 °F 63.5 °F 94% 29.97 in 5.0 mi SW 9.2 mph - 0.02 in Rain Rain
2:35 AM 65.3 °F 63.5 °F 94% 29.96 in 5.0 mi SSW 11.5 mph 18.4 mph 0.03 in   Heavy Drizzle
2:55 AM 61.7 °F 59.9 °F 94% 29.97 in 7.0 mi NW 9.2 mph 18.4 mph 0.04 in Rain Rain
3:15 AM 61.0 °F 59.9 °F 96% 29.98 in 5.0 mi NW 9.2 mph - 0.02 in Rain Light Rain
3:35 AM 60.8 °F 59.7 °F 96% 29.99 in 7.0 mi NW 10.4 mph - 0.04 in Rain Rain
3:55 AM 59.4 °F 58.1 °F 96% 29.99 in 5.0 mi WNW 6.9 mph - 0.05 in Rain Light Rain
4:15 AM 58.5 °F 57.0 °F 95% 30.00 in 10.0 mi NW 8.1 mph - N/A Rain Rain
4:35 AM 57.7 °F 55.9 °F 94% 30.00 in 10.0 mi NNW 10.4 mph 17.3 mph 0.01 in Rain Light Rain
4:55 AM 57.7 °F 55.8 °F 93% 30.00 in 10.0 mi NNW 8.1 mph - 0.01 in   Overcast
5:15 AM 57.7 °F 55.2 °F 91% 30.01 in 10.0 mi North 9.2 mph - N/A   Overcast
5:35 AM 57.2 °F 54.7 °F 91% 30.02 in 10.0 mi NNW 5.8 mph - N/A   Overcast
5:55 AM 57.2 °F 54.7 °F 91% 30.03 in 10.0 mi NNW 4.6 mph - N/A   Overcast
6:15 AM 57.2 °F 54.7 °F 91% 30.02 in 10.0 mi NNW 5.8 mph - N/A   Overcast
6:35 AM 56.3 °F 54.5 °F 94% 30.03 in 10.0 mi NNW 3.5 mph - N/A   Mostly Cloudy
6:55 AM 55.8 °F 54.5 °F 96% 30.04 in 10.0 mi NW 3.5 mph - N/A   Scattered Clouds
7:15 AM 55.0 °F 54.0 °F 96% 30.04 in 10.0 mi NW 3.5 mph - N/A   Clear
7:35 AM 55.6 °F 54.0 °F 94% 30.04 in 10.0 mi NW 4.6 mph - N/A   Clear
7:55 AM 56.3 °F 54.0 °F 92% 30.04 in 10.0 mi NW 5.8 mph - N/A   Clear
8:15 AM 57.4 °F 54.1 °F 89% 30.05 in 10.0 mi NNW 4.6 mph - N/A   Clear
8:35 AM 58.3 °F 54.3 °F 87% 30.05 in 10.0 mi NNW 5.8 mph - N/A   Clear
8:55 AM 59.0 °F 54.0 °F 83% 30.05 in 10.0 mi NNW 5.8 mph - N/A   Scattered Clouds
9:15 AM 59.9 °F 54.0 °F 81% 30.05 in 10.0 mi North 6.9 mph - N/A   Clear
9:35 AM 60.6 °F 54.1 °F 79% 30.06 in 10.0 mi NW 6.9 mph - N/A   Scattered Clouds
9:55 AM 60.6 °F 54.1 °F 79% 30.06 in 10.0 mi North 6.9 mph - N/A   Mostly Cloudy
10:15 AM 61.3 °F 54.3 °F 78% 30.06 in 10.0 mi North 8.1 mph - N/A   Mostly Cloudy
10:35 AM 61.9 °F 54.0 °F 75% 30.06 in 10.0 mi NNW 5.8 mph - N/A   Mostly Cloudy
10:55 AM 63.9 °F 53.4 °F 69% 30.06 in 10.0 mi NW 6.9 mph - N/A   Scattered Clouds
11:15 AM 63.7 °F 52.7 °F 67% 30.07 in 10.0 mi NNW 5.8 mph - N/A   Scattered Clouds
11:35 AM 65.3 °F 52.3 °F 63% 30.07 in 10.0 mi NNW 6.9 mph - N/A   Scattered Clouds
11:55 AM 65.5 °F 51.4 °F 60% 30.06 in 10.0 mi NW 8.1 mph - N/A   Scattered Clouds
12:15 PM 65.8 °F 50.4 °F 57% 30.06 in 10.0 mi North 4.6 mph - N/A   Scattered Clouds
12:35 PM 66.7 °F 49.6 °F 54% 30.05 in 10.0 mi North 6.9 mph 20.7 mph N/A   Scattered Clouds
12:55 PM 65.7 °F 49.8 °F 57% 30.04 in 10.0 mi NW 6.9 mph - N/A   Scattered Clouds
1:15 PM 67.3 °F 48.6 °F 51% 30.04 in 10.0 mi North 6.9 mph - N/A   Scattered Clouds
1:35 PM 67.8 °F 48.6 °F 50% 30.03 in 10.0 mi NNW 6.9 mph - N/A   Clear
1:55 PM 68.2 °F 48.6 °F 49% 30.02 in 10.0 mi NNW 4.6 mph - N/A   Clear
2:15 PM 68.4 °F 48.2 °F 48% 30.02 in 10.0 mi NW 3.5 mph - N/A   Clear
2:35 PM 68.7 °F 48.9 °F 49% 30.02 in 10.0 mi North 6.9 mph - N/A   Clear
2:55 PM 69.1 °F 46.6 °F 45% 30.01 in 10.0 mi NNW 3.5 mph - N/A   Clear
3:15 PM 69.1 °F 46.8 °F 45% 30.01 in 10.0 mi NW 5.8 mph - N/A   Clear
3:35 PM 69.6 °F 47.8 °F 46% 30.01 in 10.0 mi North 6.9 mph - N/A   Clear
3:55 PM 69.6 °F 48.2 °F 46% 30.00 in 10.0 mi NNE 5.8 mph - N/A   Clear
4:15 PM 69.4 °F 47.7 °F 46% 30.00 in 10.0 mi NE 4.6 mph - N/A   Clear
4:35 PM 69.1 °F 48.7 °F 48% 30.00 in 10.0 mi NE 6.9 mph - N/A   Clear
4:55 PM 68.5 °F 48.2 °F 48% 30.01 in 10.0 mi NNE 4.6 mph - N/A   Scattered Clouds
5:15 PM 68.0 °F 48.7 °F 50% 30.01 in 10.0 mi NNE 6.9 mph - N/A   Scattered Clouds
5:35 PM 66.9 °F 48.4 °F 51% 30.01 in 10.0 mi NE 6.9 mph - N/A   Clear
5:55 PM 65.3 °F 48.2 °F 54% 30.01 in 10.0 mi NE 9.2 mph - N/A   Clear
6:15 PM 63.3 °F 48.4 °F 58% 30.01 in 10.0 mi NE 6.9 mph - N/A   Clear
6:35 PM 61.5 °F 48.7 °F 63% 30.02 in 10.0 mi NNE 8.1 mph - N/A   Clear
6:55 PM 59.9 °F 49.3 °F 68% 30.02 in 10.0 mi NNE 6.9 mph - N/A   Clear
7:15 PM 58.8 °F 49.5 °F 71% 30.02 in 10.0 mi NNE 6.9 mph - N/A   Clear
7:35 PM 57.6 °F 49.6 °F 75% 30.02 in 10.0 mi NE 4.6 mph - N/A   Clear
7:55 PM 55.8 °F 49.6 °F 80% 30.02 in 10.0 mi NNE 4.6 mph - N/A   Clear
8:15 PM 55.4 °F 49.5 °F 80% 30.03 in 10.0 mi NNE 3.5 mph - N/A   Clear
8:35 PM 54.0 °F 48.9 °F 83% 30.02 in 10.0 mi Calm Calm - N/A   Clear
8:55 PM 53.1 °F 49.1 °F 86% 30.02 in 10.0 mi NNE 3.5 mph - N/A   Clear
9:15 PM 52.7 °F 48.9 °F 87% 30.02 in 10.0 mi Calm Calm - N/A   Clear
9:35 PM 51.6 °F 48.4 °F 89% 30.02 in 10.0 mi Calm Calm - N/A   Clear
9:55 PM 52.0 °F 48.9 °F 89% 30.02 in 10.0 mi Calm Calm - N/A   Clear
10:15 PM 51.4 °F 49.3 °F 92% 30.02 in 10.0 mi Calm Calm - N/A   Clear
10:35 PM 49.6 °F 48.2 °F 95% 30.03 in 10.0 mi Calm Calm - N/A   Clear
10:55 PM 48.0 °F 47.3 °F 97% 30.03 in 7.0 mi Calm Calm - N/A   Clear
11:15 PM 47.5 °F 46.8 °F 97% 30.03 in 10.0 mi Calm Calm - N/A   Clear
11:35 PM 47.7 °F 47.3 °F 99% 30.03 in 7.0 mi Calm Calm - N/A   Clear
11:55 PM 45.9 °F 45.5 °F 99% 30.02 in 3.0 mi Calm Calm - N/A   Clear